Time,TemperatureF,DewpointF,PressureIn,WindDirection,WindDirectionDegrees,WindSpeedMPH,WindSpeedGustMPH,Humidity,HourlyPrecipIn,Conditions,Clouds,dailyrainin,SolarRadiationWatts/m^2,SoftwareType,DateUTC
2013-04-19 00:03:00,70.0,67.0,-100.00,NE,50,0.0,4.0,91,0.00,,,0.00,0.000000,,2013-04-19 04:03:00,
2013-04-19 00:11:00,69.0,68.0,-100.00,NE,42,1.0,2.0,95,0.00,,,0.00,0.000000,,2013-04-19 04:11:00,
2013-04-19 00:33:00,69.0,68.0,-100.00,NE,42,1.0,2.0,95,0.00,,,0.00,0.000000,,2013-04-19 04:33:00,
2013-04-19 00:43:00,69.0,68.0,-100.00,NE,42,1.0,2.0,95,0.00,,,0.00,0.000000,,2013-04-19 04:43:00,
2013-04-19 00:52:00,69.0,68.0,-100.00,NE,42,1.0,2.0,95,0.00,,,0.00,0.000000,,2013-04-19 04:52:00,
2013-04-19 01:03:00,69.0,68.0,-100.00,NE,42,1.0,2.0,95,0.00,,,0.00,0.000000,,2013-04-19 05:03:00,
2013-04-19 01:11:00,68.0,67.0,-100.00,NE,49,1.0,3.0,95,0.00,,,0.00,0.000000,,2013-04-19 05:11:00,
2013-04-19 01:32:00,68.0,67.0,-100.00,NE,49,1.0,3.0,95,0.00,,,0.00,0.000000,,2013-04-19 05:32:00,
2013-04-19 01:42:00,68.0,67.0,-100.00,NE,49,1.0,3.0,95,0.00,,,0.00,0.000000,,2013-04-19 05:42:00,
2013-04-19 01:52:00,68.0,67.0,-100.00,NE,49,1.0,3.0,95,0.00,,,0.00,0.000000,,2013-04-19 05:52:00,
2013-04-19 02:02:00,68.0,67.0,-100.00,NE,49,1.0,3.0,95,0.00,,,0.00,0.000000,,2013-04-19 06:02:00,
2013-04-19 02:11:00,68.0,67.0,-100.00,ENE,58,1.0,3.0,96,0.00,,,0.00,0.000000,,2013-04-19 06:11:00,
2013-04-19 02:32:00,68.0,67.0,-100.00,ENE,58,1.0,3.0,96,0.00,,,0.00,0.000000,,2013-04-19 06:32:00,
2013-04-19 02:42:00,68.0,67.0,-100.00,ENE,58,1.0,3.0,96,0.00,,,0.00,0.000000,,2013-04-19 06:42:00,
2013-04-19 02:53:00,68.0,67.0,-100.00,ENE,58,1.0,3.0,96,0.00,,,0.00,0.000000,,2013-04-19 06:53:00,
2013-04-19 03:02:00,68.0,67.0,-100.00,ENE,58,1.0,3.0,96,0.00,,,0.00,0.000000,,2013-04-19 07:02:00,
2013-04-19 04:11:00,65.0,64.0,-100.00,ESE,118,0.0,2.0,96,-99.99,,,0.00,0.000000,,2013-04-19 08:11:00,
2013-04-19 04:42:00,65.0,64.0,-100.00,ESE,118,0.0,2.0,96,-99.99,,,0.00,0.000000,,2013-04-19 08:42:00,
2013-04-19 04:52:00,65.0,64.0,-100.00,ESE,118,0.0,2.0,96,-99.99,,,0.00,0.000000,,2013-04-19 08:52:00,
2013-04-19 05:01:00,65.0,64.0,-100.00,ESE,118,0.0,2.0,96,-99.99,,,0.00,0.000000,,2013-04-19 09:01:00,
2013-04-19 05:11:00,65.0,64.0,-100.00,NE,43,0.0,2.0,96,0.00,,,0.00,0.000000,,2013-04-19 09:11:00,
2013-04-19 05:33:00,65.0,64.0,-100.00,NE,43,0.0,2.0,96,0.00,,,0.00,0.000000,,2013-04-19 09:33:00,
2013-04-19 05:43:00,65.0,64.0,-100.00,NE,43,0.0,2.0,96,0.00,,,0.00,0.000000,,2013-04-19 09:43:00,
2013-04-19 05:52:00,65.0,64.0,-100.00,NE,43,0.0,2.0,96,0.00,,,0.00,0.000000,,2013-04-19 09:52:00,
2013-04-19 06:02:00,65.0,64.0,-100.00,NE,43,0.0,2.0,96,0.00,,,0.00,0.000000,,2013-04-19 10:02:00,
2013-04-19 06:11:00,65.0,64.0,-100.00,ENE,69,0.0,2.0,97,0.00,,,0.00,0.000000,,2013-04-19 10:11:00,
2013-04-19 06:33:00,65.0,64.0,-100.00,ENE,69,0.0,2.0,97,0.00,,,0.00,0.000000,,2013-04-19 10:33:00,
2013-04-19 06:42:00,65.0,64.0,-100.00,ENE,69,0.0,2.0,97,0.00,,,0.00,0.000000,,2013-04-19 10:42:00,
2013-04-19 06:52:00,65.0,64.0,-100.00,ENE,69,0.0,2.0,97,0.00,,,0.00,0.000000,,2013-04-19 10:52:00,
2013-04-19 07:03:00,65.0,64.0,-100.00,ENE,69,0.0,2.0,97,0.00,,,0.00,0.000000,,2013-04-19 11:03:00,
2013-04-19 07:11:00,67.0,66.0,-100.00,NE,37,1.0,4.0,97,0.00,,,0.00,1.000000,,2013-04-19 11:11:00,
2013-04-19 07:32:00,67.0,66.0,-100.00,NE,37,1.0,4.0,97,0.00,,,0.00,1.000000,,2013-04-19 11:32:00,
2013-04-19 07:43:00,67.0,66.0,-100.00,NE,37,1.0,4.0,97,0.00,,,0.00,1.000000,,2013-04-19 11:43:00,
2013-04-19 07:52:00,67.0,66.0,-100.00,NE,37,1.0,4.0,97,0.00,,,0.00,1.000000,,2013-04-19 11:52:00,
2013-04-19 08:03:00,67.0,66.0,-100.00,NE,37,1.0,4.0,97,0.00,,,0.00,1.000000,,2013-04-19 12:03:00,
2013-04-19 08:11:00,72.0,71.0,-100.00,South,174,2.0,5.0,97,0.00,,,0.00,47.000000,,2013-04-19 12:11:00,
2013-04-19 08:42:00,72.0,71.0,-100.00,South,174,2.0,5.0,97,0.00,,,0.00,47.000000,,2013-04-19 12:42:00,
2013-04-19 08:53:00,72.0,71.0,-100.00,South,174,2.0,5.0,97,0.00,,,0.00,47.000000,,2013-04-19 12:53:00,
2013-04-19 09:02:00,72.0,71.0,-100.00,South,174,2.0,5.0,97,0.00,,,0.00,47.000000,,2013-04-19 13:02:00,
2013-04-19 09:11:00,78.0,72.0,-100.00,South,172,4.0,10.0,81,0.00,,,0.00,140.000000,,2013-04-19 13:11:00,
2013-04-19 09:42:00,78.0,72.0,-100.00,South,172,4.0,10.0,81,0.00,,,0.00,140.000000,,2013-04-19 13:42:00,
2013-04-19 09:52:00,78.0,72.0,-100.00,South,172,4.0,10.0,81,0.00,,,0.00,140.000000,,2013-04-19 13:52:00,
2013-04-19 10:02:00,78.0,72.0,-100.00,South,172,4.0,10.0,81,0.00,,,0.00,140.000000,,2013-04-19 14:02:00,
2013-04-19 10:11:00,85.0,71.0,-100.00,South,177,5.0,13.0,63,0.00,,,0.00,473.000000,,2013-04-19 14:11:00,
2013-04-19 10:32:00,85.0,71.0,-100.00,South,177,5.0,13.0,63,0.00,,,0.00,473.000000,,2013-04-19 14:32:00,
2013-04-19 10:43:00,85.0,71.0,-100.00,South,177,5.0,13.0,63,0.00,,,0.00,473.000000,,2013-04-19 14:43:00,
2013-04-19 10:52:00,85.0,71.0,-100.00,South,177,5.0,13.0,63,0.00,,,0.00,473.000000,,2013-04-19 14:52:00,
2013-04-19 11:02:00,85.0,71.0,-100.00,South,177,5.0,13.0,63,0.00,,,0.00,473.000000,,2013-04-19 15:02:00,
2013-04-19 11:11:00,84.0,68.0,-100.00,South,183,5.0,14.0,58,0.00,,,0.00,500.000000,,2013-04-19 15:11:00,
2013-04-19 11:43:00,84.0,68.0,-100.00,South,183,5.0,14.0,58,0.00,,,0.00,500.000000,,2013-04-19 15:43:00,
2013-04-19 11:52:00,84.0,68.0,-100.00,South,183,5.0,14.0,58,0.00,,,0.00,500.000000,,2013-04-19 15:52:00,
2013-04-19 12:03:00,84.0,68.0,-100.00,South,183,5.0,14.0,58,0.00,,,0.00,500.000000,,2013-04-19 16:03:00,
2013-04-19 12:11:00,90.0,68.0,-100.00,SSE,166,5.0,12.0,48,0.00,,,0.00,711.000000,,2013-04-19 16:11:00,
2013-04-19 12:43:00,90.0,68.0,-100.00,SSE,166,5.0,12.0,48,0.00,,,0.00,711.000000,,2013-04-19 16:43:00,
2013-04-19 12:53:00,90.0,68.0,-100.00,SSE,166,5.0,12.0,48,0.00,,,0.00,711.000000,,2013-04-19 16:53:00,
2013-04-19 13:02:00,90.0,68.0,-100.00,SSE,166,5.0,12.0,48,0.00,,,0.00,711.000000,,2013-04-19 17:02:00,
2013-04-19 13:11:00,89.0,67.0,-100.00,SSW,201,6.0,13.0,49,0.00,,,0.00,661.000000,,2013-04-19 17:11:00,
2013-04-19 13:43:00,89.0,67.0,-100.00,SSW,201,6.0,13.0,49,0.00,,,0.00,661.000000,,2013-04-19 17:43:00,
2013-04-19 13:52:00,89.0,67.0,-100.00,SSW,201,6.0,13.0,49,0.00,,,0.00,661.000000,,2013-04-19 17:52:00,
2013-04-19 14:02:00,89.0,67.0,-100.00,SSW,201,6.0,13.0,49,0.00,,,0.00,661.000000,,2013-04-19 18:02:00,
2013-04-19 14:11:00,90.0,68.0,-100.00,South,191,5.0,13.0,49,0.00,,,0.00,773.000000,,2013-04-19 18:11:00,
2013-04-19 14:43:00,90.0,68.0,-100.00,South,191,5.0,13.0,49,0.00,,,0.00,773.000000,,2013-04-19 18:43:00,
2013-04-19 14:52:00,90.0,68.0,-100.00,South,191,5.0,13.0,49,0.00,,,0.00,773.000000,,2013-04-19 18:52:00,
2013-04-19 15:02:00,90.0,68.0,-100.00,South,191,5.0,13.0,49,0.00,,,0.00,773.000000,,2013-04-19 19:02:00,
2013-04-19 15:11:00,92.0,69.0,-100.00,SSW,195,7.0,16.0,47,0.00,,,0.00,817.000000,,2013-04-19 19:11:00,
2013-04-19 15:32:00,92.0,69.0,-100.00,SSW,195,7.0,16.0,47,0.00,,,0.00,817.000000,,2013-04-19 19:32:00,
2013-04-19 15:42:00,92.0,69.0,-100.00,SSW,195,7.0,16.0,47,0.00,,,0.00,817.000000,,2013-04-19 19:42:00,
2013-04-19 15:52:00,92.0,69.0,-100.00,SSW,195,7.0,16.0,47,0.00,,,0.00,817.000000,,2013-04-19 19:52:00,
2013-04-19 16:02:00,92.0,69.0,-100.00,SSW,195,7.0,16.0,47,0.00,,,0.00,817.000000,,2013-04-19 20:02:00,
2013-04-19 16:11:00,92.0,69.0,-100.00,SSW,192,5.0,16.0,47,0.00,,,0.00,777.000000,,2013-04-19 20:11:00,
2013-04-19 16:42:00,92.0,69.0,-100.00,SSW,192,5.0,16.0,47,0.00,,,0.00,777.000000,,2013-04-19 20:42:00,
2013-04-19 16:52:00,92.0,69.0,-100.00,SSW,192,5.0,16.0,47,0.00,,,0.00,777.000000,,2013-04-19 20:52:00,
2013-04-19 17:01:00,92.0,69.0,-100.00,SSW,192,5.0,16.0,47,0.00,,,0.00,777.000000,,2013-04-19 21:01:00,
2013-04-19 18:11:00,86.0,69.0,-100.00,SSW,197,6.0,14.0,58,-99.99,,,0.00,313.000000,,2013-04-19 22:11:00,
2013-04-19 18:33:00,86.0,69.0,-100.00,SSW,197,6.0,14.0,58,-99.99,,,0.00,313.000000,,2013-04-19 22:33:00,
2013-04-19 18:42:00,86.0,69.0,-100.00,SSW,197,6.0,14.0,58,-99.99,,,0.00,313.000000,,2013-04-19 22:42:00,
2013-04-19 18:52:00,86.0,69.0,-100.00,SSW,197,6.0,14.0,58,-99.99,,,0.00,313.000000,,2013-04-19 22:52:00,
2013-04-19 19:03:00,86.0,69.0,-100.00,SSW,197,6.0,14.0,58,-99.99,,,0.00,313.000000,,2013-04-19 23:03:00,
2013-04-19 19:11:00,82.0,70.0,-100.00,East,96,2.0,11.0,67,0.00,,,0.00,108.000000,,2013-04-19 23:11:00,
2013-04-19 19:42:00,82.0,70.0,-100.00,East,96,2.0,11.0,67,0.00,,,0.00,108.000000,,2013-04-19 23:42:00,
2013-04-19 19:53:00,82.0,70.0,-100.00,East,96,2.0,11.0,67,0.00,,,0.00,108.000000,,2013-04-19 23:53:00,
2013-04-19 20:02:00,82.0,70.0,-100.00,East,96,2.0,11.0,67,0.00,,,0.00,108.000000,,2013-04-20 00:02:00,
2013-04-19 21:11:00,73.0,70.0,-100.00,ENE,73,0.0,3.0,90,-99.99,,,0.00,0.000000,,2013-04-20 01:11:00,
2013-04-19 21:32:00,73.0,70.0,-100.00,ENE,73,0.0,3.0,90,-99.99,,,0.00,0.000000,,2013-04-20 01:32:00,
2013-04-19 21:42:00,73.0,70.0,-100.00,ENE,73,0.0,3.0,90,-99.99,,,0.00,0.000000,,2013-04-20 01:42:00,
2013-04-19 21:52:00,73.0,70.0,-100.00,ENE,73,0.0,3.0,90,-99.99,,,0.00,0.000000,,2013-04-20 01:52:00,
2013-04-19 22:02:00,73.0,70.0,-100.00,ENE,73,0.0,3.0,90,-99.99,,,0.00,0.000000,,2013-04-20 02:02:00,
2013-04-19 22:11:00,71.0,69.0,-100.00,SE,126,0.0,0.0,94,0.00,,,0.00,0.000000,,2013-04-20 02:11:00,
2013-04-19 22:32:00,71.0,69.0,-100.00,SE,126,0.0,0.0,94,0.00,,,0.00,0.000000,,2013-04-20 02:32:00,
2013-04-19 22:42:00,71.0,69.0,-100.00,SE,126,0.0,0.0,94,0.00,,,0.00,0.000000,,2013-04-20 02:42:00,
2013-04-19 22:52:00,71.0,69.0,-100.00,SE,126,0.0,0.0,94,0.00,,,0.00,0.000000,,2013-04-20 02:52:00,
2013-04-19 23:01:00,71.0,69.0,-100.00,SE,126,0.0,0.0,94,0.00,,,0.00,0.000000,,2013-04-20 03:01:00,
2013-04-19 23:11:00,70.0,68.0,-100.00,ENE,64,0.0,2.0,95,0.00,,,0.00,0.000000,,2013-04-20 03:11:00,
2013-04-19 23:43:00,70.0,68.0,-100.00,ENE,64,0.0,2.0,95,0.00,,,0.00,0.000000,,2013-04-20 03:43:00,
2013-04-19 23:53:00,70.0,68.0,-100.00,ENE,64,0.0,2.0,95,0.00,,,0.00,0.000000,,2013-04-20 03:53:00,